,,PA_Meas_PMT16A,,PR_Meas_QMR101_102,,RH_Meas_QMH101,,SR_Meas_QMS101,,TA_Meas_QMH101,,GenWind,,GenWind,
time,status,PA,status,PR,status,RH,status,SR,status,TA,status,DirAvg,status,SpdAvg,
2011-03-15, 00:00:04,VALID,916.856,VALID,0,VALID,96.6649,VALID,0,VALID,21.1657,VALID,3,VALID,0.310547,
2011-03-15, 00:01:04,VALID,916.851,VALID,0,VALID,96.6115,VALID,0,VALID,21.1852,VALID,2,VALID,0.300391,
2011-03-15, 00:02:04,VALID,916.838,VALID,0,VALID,96.5734,VALID,0,VALID,21.1445,VALID,3,VALID,0.0582031,
2011-03-15, 00:03:04,VALID,916.858,VALID,0,VALID,96.5811,VALID,0,VALID,21.1445,VALID,3,VALID,0,
2011-03-15, 00:04:04,VALID,916.831,VALID,0,VALID,96.5811,VALID,0,VALID,21.1461,VALID,3,VALID,0.270312,
2011-03-15, 00:05:04,VALID,916.811,VALID,0,VALID,96.5734,VALID,0,VALID,21.1055,VALID,3,VALID,0.277734,
2011-03-15, 00:06:04,VALID,916.746,VALID,0,VALID,96.5811,VALID,0,VALID,21.086,VALID,3,VALID,0,
2011-03-15, 00:07:04,VALID,916.729,VALID,0,VALID,96.6268,VALID,0,VALID,21.1055,VALID,3,VALID,0.175391,
2011-03-15, 00:08:04,VALID,916.71,VALID,0,VALID,96.6192,VALID,0,VALID,21.086,VALID,3,VALID,0.200391,
2011-03-15, 00:09:04,VALID,916.711,VALID,0,VALID,96.6192,VALID,0,VALID,21.086,VALID,3,VALID,0.502734,
2011-03-15, 00:10:04,VALID,916.701,VALID,0,VALID,96.6268,VALID,0,VALID,21.086,VALID,3,VALID,0.534766,
2011-03-15, 00:11:04,VALID,916.687,VALID,0,VALID,96.6497,VALID,0,VALID,21.1071,VALID,3,VALID,0.598047,
2011-03-15, 00:12:04,VALID,916.691,VALID,0,VALID,96.6497,VALID,0,VALID,21.086,VALID,3,VALID,0.359766,
2011-03-15, 00:13:04,VALID,916.716,VALID,0,VALID,96.6573,VALID,0,VALID,21.0665,VALID,3,VALID,0.606641,
2011-03-15, 00:14:04,VALID,916.735,VALID,0,VALID,96.6497,VALID,0,VALID,21.0665,VALID,4,VALID,0.724219,
2011-03-15, 00:15:04,VALID,916.782,VALID,0,VALID,96.6497,VALID,0,VALID,21.0665,VALID,4,VALID,0.349609,
2011-03-15, 00:16:04,VALID,916.802,VALID,0,VALID,96.6725,VALID,0,VALID,21.0681,VALID,4,VALID,0.313672,
2011-03-15, 00:17:04,VALID,916.826,VALID,0,VALID,96.6725,VALID,0,VALID,21.047,VALID,4,VALID,0.474609,
2011-03-15, 00:18:04,VALID,916.804,VALID,0,VALID,96.642,VALID,0,VALID,21.0275,VALID,4,VALID,0.655859,
2011-03-15, 00:19:04,VALID,916.799,VALID,0,VALID,96.7107,VALID,0,VALID,21.0275,VALID,4,VALID,0.173438,
2011-03-15, 00:20:04,VALID,916.748,VALID,0,VALID,96.7564,VALID,0,VALID,21.086,VALID,4,VALID,0.170312,
2011-03-15, 00:21:04,VALID,916.75,VALID,0,VALID,96.7716,VALID,0,VALID,21.1055,VALID,4,VALID,0,
2011-03-15, 00:22:04,VALID,916.713,VALID,0,VALID,96.764,VALID,0,VALID,21.125,VALID,4,VALID,0.253125,
2011-03-15, 00:23:04,VALID,916.704,VALID,0,VALID,96.7335,VALID,0,VALID,21.1461,VALID,4,VALID,0.107422,
2011-03-15, 00:24:04,VALID,916.666,VALID,0,VALID,96.7259,VALID,0,VALID,21.125,VALID,4,VALID,0,
2011-03-15, 00:25:04,VALID,916.681,VALID,0,VALID,96.6954,VALID,0,VALID,21.1071,VALID,4,VALID,0.201172,
2011-03-15, 00:26:04,VALID,916.605,VALID,0,VALID,96.6802,VALID,0,VALID,21.0665,VALID,4,VALID,0.459766,
2011-03-15, 00:27:04,VALID,916.607,VALID,0,VALID,96.6802,VALID,0,VALID,21.0275,VALID,4,VALID,0.429688,
2011-03-15, 00:28:04,VALID,916.617,VALID,0,VALID,96.6954,VALID,0,VALID,21.008,VALID,4,VALID,0.473437,
2011-03-15, 00:29:04,VALID,916.606,VALID,0,VALID,96.6878,VALID,0,VALID,20.9885,VALID,4,VALID,0.448438,
2011-03-15, 00:30:04,VALID,916.6,VALID,0,VALID,96.7183,VALID,0,VALID,20.9901,VALID,4,VALID,0.0230469,
2011-03-15, 00:31:04,VALID,916.63,VALID,0,VALID,96.7564,VALID,0,VALID,20.9885,VALID,4,VALID,0.347656,
2011-03-15, 00:32:04,VALID,916.646,VALID,0,VALID,96.764,VALID,0,VALID,20.9901,VALID,4,VALID,0.667188,
2011-03-15, 00:33:04,VALID,916.667,VALID,0,VALID,96.7259,VALID,0,VALID,20.969,VALID,4,VALID,0.785547,
2011-03-15, 00:34:04,VALID,916.654,VALID,0,VALID,96.764,VALID,0,VALID,21.0096,VALID,4,VALID,0.441406,
2011-03-15, 00:35:04,VALID,916.642,VALID,0,VALID,96.8098,VALID,0,VALID,21.008,VALID,4,VALID,0.30625,
2011-03-15, 00:36:04,VALID,916.679,VALID,0,VALID,96.7716,VALID,0,VALID,21.0275,VALID,4,VALID,0.623828,
2011-03-15, 00:37:04,VALID,916.641,VALID,0,VALID,96.7945,VALID,0,VALID,21.0275,VALID,4,VALID,0.596094,
2011-03-15, 00:38:04,VALID,916.656,VALID,0,VALID,96.8021,VALID,0,VALID,21.0665,VALID,4,VALID,0.246094,
2011-03-15, 00:39:04,VALID,916.642,VALID,0,VALID,96.8098,VALID,0,VALID,21.086,VALID,4,VALID,0.533984,
2011-03-15, 00:40:04,VALID,916.644,VALID,0,VALID,96.825,VALID,0,VALID,21.1055,VALID,4,VALID,0.0960938,
2011-03-15, 00:41:04,VALID,916.605,VALID,0,VALID,96.7793,VALID,0,VALID,21.086,VALID,4,VALID,0.000390625,
2011-03-15, 00:42:04,VALID,916.612,VALID,0,VALID,96.7869,VALID,0,VALID,21.1071,VALID,4,VALID,0,
2011-03-15, 00:43:04,VALID,916.603,VALID,0,VALID,96.7945,VALID,0,VALID,21.0681,VALID,4,VALID,0.0257812,
2011-03-15, 00:44:04,VALID,916.566,VALID,0,VALID,96.7793,VALID,0,VALID,21.0291,VALID,4,VALID,0.233203,
2011-03-15, 00:45:04,VALID,916.541,VALID,0,VALID,96.7716,VALID,0,VALID,21.0275,VALID,4,VALID,0.264453,
2011-03-15, 00:46:04,VALID,916.518,VALID,0,VALID,96.7945,VALID,0,VALID,21.008,VALID,4,VALID,0.337109,
2011-03-15, 00:47:04,VALID,916.477,VALID,0,VALID,96.764,VALID,0,VALID,21.0291,VALID,4,VALID,0.577344,
2011-03-15, 00:48:04,VALID,916.483,VALID,0,VALID,96.8098,VALID,0,VALID,20.9885,VALID,4,VALID,0.602734,
2011-03-15, 00:49:04,VALID,916.45,VALID,0,VALID,96.7869,VALID,0,VALID,20.9885,VALID,4,VALID,0.548437,
2011-03-15, 00:50:04,VALID,916.407,VALID,0,VALID,96.7869,VALID,0,VALID,21.008,VALID,4,VALID,0.533203,
2011-03-15, 00:51:04,VALID,916.389,VALID,0,VALID,96.7411,VALID,0,VALID,20.93,VALID,4,VALID,0.518359,
2011-03-15, 00:52:04,VALID,916.371,VALID,0,VALID,96.8098,VALID,0,VALID,20.9495,VALID,4,VALID,0.805469,
2011-03-15, 00:53:04,VALID,916.374,VALID,0,VALID,96.8174,VALID,0,VALID,20.9901,VALID,4,VALID,0.689453,
2011-03-15, 00:54:04,VALID,916.351,VALID,0,VALID,96.825,VALID,0,VALID,20.9495,VALID,4,VALID,0.847266,
2011-03-15, 00:55:04,VALID,916.329,VALID,0,VALID,96.825,VALID,0,VALID,20.9706,VALID,4,VALID,0.734766,
2011-03-15, 00:56:04,VALID,916.333,VALID,0,VALID,96.8174,VALID,0,VALID,20.9885,VALID,4,VALID,0.717578,
2011-03-15, 00:57:04,VALID,916.322,VALID,0,VALID,96.8098,VALID,0,VALID,20.93,VALID,4,VALID,0.565625,
2011-03-15, 00:58:04,VALID,916.318,VALID,0,VALID,96.8174,VALID,0,VALID,20.93,VALID,4,VALID,0.601953,
2011-03-15, 00:59:04,VALID,916.282,VALID,0,VALID,96.7869,VALID,0,VALID,20.912,VALID,4,VALID,0.436719,
2011-03-15, 01:00:04,VALID,916.272,VALID,0,VALID,96.8098,VALID,0,VALID,20.8925,VALID,4,VALID,0.608984,
2011-03-15, 01:01:04,VALID,916.275,VALID,0,VALID,96.7793,VALID,0,VALID,20.873,VALID,4,VALID,0.901172,
2011-03-15, 01:02:04,VALID,916.261,VALID,0,VALID,96.7716,VALID,0,VALID,20.8324,VALID,4,VALID,0.789844,
2011-03-15, 01:03:04,VALID,916.286,VALID,0,VALID,96.7869,VALID,0,VALID,20.8129,VALID,4,VALID,0.642578,
2011-03-15, 01:04:04,VALID,916.276,VALID,0,VALID,96.825,VALID,0,VALID,20.7934,VALID,4,VALID,0.190234,
2011-03-15, 01:05:04,VALID,916.272,VALID,0,VALID,96.825,VALID,0,VALID,20.7934,VALID,4,VALID,0.649609,
2011-03-15, 01:06:04,VALID,916.297,VALID,0,VALID,96.8326,VALID,0,VALID,20.7934,VALID,4,VALID,0.367578,
2011-03-15, 01:07:04,VALID,916.267,VALID,0,VALID,96.8555,VALID,0,VALID,20.7739,VALID,4,VALID,0.419531,
2011-03-15, 01:08:04,VALID,916.214,VALID,0,VALID,96.8707,VALID,0,VALID,20.8129,VALID,4,VALID,0.712891,
2011-03-15, 01:09:04,VALID,916.199,VALID,0,VALID,96.8555,VALID,0,VALID,20.834,VALID,4,VALID,0.830469,
2011-03-15, 01:10:04,VALID,916.201,VALID,0,VALID,96.8555,VALID,0,VALID,20.8129,VALID,4,VALID,0.767187,
2011-03-15, 01:11:04,VALID,916.18,VALID,0,VALID,96.8784,VALID,0,VALID,20.8324,VALID,4,VALID,0.614844,
2011-03-15, 01:12:04,VALID,916.146,VALID,0,VALID,96.8555,VALID,0,VALID,20.8129,VALID,4,VALID,0.402734,
2011-03-15, 01:13:04,VALID,916.135,VALID,0,VALID,96.8555,VALID,0,VALID,20.8129,VALID,4,VALID,0.896875,
2011-03-15, 01:14:04,VALID,916.149,VALID,0,VALID,96.8555,VALID,0,VALID,20.8129,VALID,4,VALID,0.833203,
2011-03-15, 01:15:04,VALID,916.13,VALID,0,VALID,96.8707,VALID,0,VALID,20.7934,VALID,4,VALID,1.0293,
2011-03-15, 01:16:04,VALID,916.131,VALID,0,VALID,96.8631,VALID,0,VALID,20.7739,VALID,6,VALID,1.05625,
2011-03-15, 01:17:04,VALID,916.108,VALID,0,VALID,96.9012,VALID,0,VALID,20.8129,VALID,6,VALID,0.691406,
2011-03-15, 01:18:04,VALID,916.136,VALID,0,VALID,96.8555,VALID,0,VALID,20.7934,VALID,15,VALID,1.12578,
2011-03-15, 01:19:04,VALID,916.172,VALID,0,VALID,96.8707,VALID,0,VALID,20.795,VALID,15,VALID,0.922266,
2011-03-15, 01:20:04,VALID,916.163,VALID,0,VALID,96.8707,VALID,0,VALID,20.7544,VALID,15,VALID,0.717188,
2011-03-15, 01:21:04,VALID,916.149,VALID,0,VALID,96.8631,VALID,0,VALID,20.7739,VALID,15,VALID,0.533203,
2011-03-15, 01:22:04,VALID,916.144,VALID,0,VALID,96.8784,VALID,0,VALID,20.795,VALID,15,VALID,0.466016,
2011-03-15, 01:23:04,VALID,916.127,VALID,0,VALID,96.886,VALID,0,VALID,20.795,VALID,15,VALID,0.626172,
2011-03-15, 01:24:04,VALID,916.094,VALID,0,VALID,96.8936,VALID,0.107441,VALID,20.7739,VALID,15,VALID,0.618359,
2011-03-15, 01:25:04,VALID,916.052,VALID,0,VALID,96.9012,VALID,0,VALID,20.7544,VALID,15,VALID,0.282813,
2011-03-15, 01:26:04,VALID,916.031,VALID,0,VALID,96.9089,VALID,0,VALID,20.7934,VALID,15,VALID,0.421094,
2011-03-15, 01:27:04,VALID,916.006,VALID,0,VALID,96.9012,VALID,0,VALID,20.7934,VALID,15,VALID,0.491406,
2011-03-15, 01:28:04,VALID,915.963,VALID,0,VALID,96.9165,VALID,0,VALID,20.8324,VALID,15,VALID,0.442187,
2011-03-15, 01:29:04,VALID,915.949,VALID,0,VALID,96.947,VALID,0,VALID,20.8324,VALID,15,VALID,0.109766,
2011-03-15, 01:30:04,VALID,915.947,VALID,0,VALID,96.9241,VALID,0,VALID,20.8519,VALID,15,VALID,0,
2011-03-15, 01:31:04,VALID,915.969,VALID,0,VALID,96.9165,VALID,0,VALID,20.873,VALID,15,VALID,0.146484,
2011-03-15, 01:32:04,VALID,915.986,VALID,0,VALID,96.9317,VALID,0,VALID,20.8925,VALID,15,VALID,0.0015625,
2011-03-15, 01:33:04,VALID,916.019,VALID,0,VALID,96.9394,VALID,0,VALID,20.873,VALID,15,VALID,0,
2011-03-15, 01:34:04,VALID,916.049,VALID,0,VALID,96.9241,VALID,0,VALID,20.873,VALID,15,VALID,0.0484375,
2011-03-15, 01:35:04,VALID,916.049,VALID,0,VALID,96.9165,VALID,0,VALID,20.873,VALID,15,VALID,0.715234,
2011-03-15, 01:36:04,VALID,916.088,VALID,0,VALID,96.9394,VALID,0,VALID,20.891,VALID,15,VALID,0.532812,
2011-03-15, 01:37:04,VALID,916.109,VALID,0,VALID,96.9394,VALID,0,VALID,20.891,VALID,15,VALID,0.649219,
2011-03-15, 01:38:04,VALID,916.115,VALID,0,VALID,96.9089,VALID,0,VALID,20.8714,VALID,15,VALID,0.714063,
2011-03-15, 01:39:04,VALID,916.118,VALID,0,VALID,96.9241,VALID,0,VALID,20.8519,VALID,15,VALID,0.805078,
2011-03-15, 01:40:04,VALID,916.118,VALID,0,VALID,96.9317,VALID,0,VALID,20.8519,VALID,15,VALID,0.611719,
2011-03-15, 01:41:04,VALID,916.067,VALID,0,VALID,96.9317,VALID,0,VALID,20.8925,VALID,15,VALID,0.671484,
2011-03-15, 01:42:04,VALID,916.09,VALID,0,VALID,96.9394,VALID,0,VALID,20.8519,VALID,15,VALID,0.544922,
2011-03-15, 01:43:04,VALID,916.083,VALID,0,VALID,96.9089,VALID,0,VALID,20.8519,VALID,15,VALID,0.462109,
2011-03-15, 01:44:04,VALID,916.02,VALID,0,VALID,96.9241,VALID,0,VALID,20.8324,VALID,15,VALID,0.754687,
2011-03-15, 01:45:04,VALID,916,VALID,0,VALID,96.9241,VALID,0,VALID,20.7934,VALID,15,VALID,0.445313,
2011-03-15, 01:46:04,VALID,915.984,VALID,0,VALID,96.9241,VALID,0,VALID,20.834,VALID,15,VALID,0.386719,
2011-03-15, 01:47:04,VALID,915.958,VALID,0,VALID,96.9317,VALID,0,VALID,20.8145,VALID,15,VALID,0.648438,
2011-03-15, 01:48:04,VALID,915.889,VALID,0,VALID,96.9317,VALID,0,VALID,20.8145,VALID,15,VALID,0.829297,
2011-03-15, 01:49:04,VALID,915.867,VALID,0,VALID,96.947,VALID,0,VALID,20.8324,VALID,15,VALID,0.470703,
2011-03-15, 01:50:04,VALID,915.842,VALID,0,VALID,96.9394,VALID,0,VALID,20.8129,VALID,15,VALID,0.808594,
2011-03-15, 01:51:04,VALID,915.799,VALID,0,VALID,96.9394,VALID,0,VALID,20.8519,VALID,15,VALID,1.04023,
2011-03-15, 01:52:04,VALID,915.768,VALID,0,VALID,96.9317,VALID,0,VALID,20.8129,VALID,15,VALID,1.00469,
2011-03-15, 01:53:04,VALID,915.782,VALID,0,VALID,96.9394,VALID,0,VALID,20.8145,VALID,15,VALID,0.8625,
2011-03-15, 01:54:04,VALID,915.792,VALID,0,VALID,96.9394,VALID,0,VALID,20.834,VALID,15,VALID,0.297656,
2011-03-15, 01:55:04,VALID,915.794,VALID,0,VALID,96.9394,VALID,0,VALID,20.8519,VALID,15,VALID,0.81875,
2011-03-15, 01:56:04,VALID,915.772,VALID,0,VALID,96.9546,VALID,0,VALID,20.8129,VALID,26,VALID,1.33555,
2011-03-15, 01:57:04,VALID,915.788,VALID,0,VALID,96.9317,VALID,0,VALID,20.8324,VALID,24,VALID,0.628125,
2011-03-15, 01:58:04,VALID,915.827,VALID,0,VALID,96.9546,VALID,0,VALID,20.8535,VALID,24,VALID,0.305859,
2011-03-15, 01:59:04,VALID,915.835,VALID,0,VALID,96.9698,VALID,0,VALID,20.8324,VALID,24,VALID,0.773438,
2011-03-15, 02:00:04,VALID,915.814,VALID,0,VALID,96.9622,VALID,0,VALID,20.8324,VALID,24,VALID,0.571875,
2011-03-15, 02:01:04,VALID,915.837,VALID,0,VALID,96.9546,VALID,0,VALID,20.873,VALID,24,VALID,0.857813,
2011-03-15, 02:02:04,VALID,915.806,VALID,0,VALID,96.9698,VALID,0,VALID,20.873,VALID,24,VALID,1.21914,
2011-03-15, 02:03:04,VALID,915.795,VALID,0,VALID,96.9546,VALID,0,VALID,20.8535,VALID,24,VALID,0.938281,
2011-03-15, 02:04:04,VALID,915.757,VALID,0,VALID,96.9546,VALID,0,VALID,20.8324,VALID,1,VALID,1.00469,
2011-03-15, 02:05:04,VALID,915.711,VALID,0,VALID,96.9622,VALID,0,VALID,20.8535,VALID,1,VALID,0.466406,
2011-03-15, 02:06:04,VALID,915.67,VALID,0,VALID,96.9622,VALID,0,VALID,20.8535,VALID,1,VALID,0.366406,
2011-03-15, 02:07:04,VALID,915.64,VALID,0,VALID,96.9546,VALID,0,VALID,20.834,VALID,2,VALID,0.980859,
2011-03-15, 02:08:04,VALID,915.6,VALID,0.2,VALID,96.947,VALID,0,VALID,20.8129,VALID,2,VALID,0.878125,
2011-03-15, 02:09:04,VALID,915.549,VALID,0.2,VALID,96.9622,VALID,0,VALID,20.8324,VALID,2,VALID,0.957812,
2011-03-15, 02:10:04,VALID,915.488,VALID,0,VALID,96.9698,VALID,0,VALID,20.8129,VALID,2,VALID,0.828516,
2011-03-15, 02:11:04,VALID,915.472,VALID,0.2,VALID,96.9622,VALID,0,VALID,20.834,VALID,2,VALID,0.777344,
2011-03-15, 02:12:04,VALID,915.436,VALID,0,VALID,96.9851,VALID,0,VALID,20.8129,VALID,2,VALID,0.439063,
2011-03-15, 02:13:04,VALID,915.393,VALID,0,VALID,96.9546,VALID,0,VALID,20.8324,VALID,2,VALID,0.301562,
2011-03-15, 02:14:04,VALID,915.383,VALID,0,VALID,96.9698,VALID,0,VALID,20.8535,VALID,2,VALID,0.0917969,
2011-03-15, 02:15:04,VALID,915.39,VALID,0,VALID,96.9851,VALID,0,VALID,20.8129,VALID,2,VALID,0,
2011-03-15, 02:16:04,VALID,915.353,VALID,0,VALID,96.9927,VALID,0,VALID,20.8129,VALID,2,VALID,0,
2011-03-15, 02:17:04,VALID,915.328,VALID,0,VALID,96.9851,VALID,0,VALID,20.8129,VALID,2,VALID,0.426562,
2011-03-15, 02:18:04,VALID,915.287,VALID,0,VALID,96.9851,VALID,0,VALID,20.834,VALID,2,VALID,0.260156,
2011-03-15, 02:19:04,VALID,915.312,VALID,0,VALID,96.9775,VALID,0,VALID,20.8324,VALID,2,VALID,0.475781,
2011-03-15, 02:20:04,VALID,915.281,VALID,0,VALID,97.008,VALID,0,VALID,20.8535,VALID,2,VALID,0.0128906,
2011-03-15, 02:21:04,VALID,915.306,VALID,0,VALID,97.008,VALID,0,VALID,20.873,VALID,2,VALID,0,
2011-03-15, 02:22:04,VALID,915.287,VALID,0,VALID,97.0003,VALID,0,VALID,20.8925,VALID,2,VALID,0,
2011-03-15, 02:23:04,VALID,915.26,VALID,0,VALID,96.9927,VALID,0,VALID,20.8714,VALID,2,VALID,0.000390625,
2011-03-15, 02:24:04,VALID,915.256,VALID,0,VALID,96.9851,VALID,0,VALID,20.873,VALID,2,VALID,0.642578,
2011-03-15, 02:25:04,VALID,915.251,VALID,0,VALID,96.9851,VALID,0,VALID,20.8324,VALID,2,VALID,0.914453,
2011-03-15, 02:26:04,VALID,915.198,VALID,0,VALID,96.9698,VALID,0,VALID,20.8145,VALID,2,VALID,0.695313,
2011-03-15, 02:27:04,VALID,915.181,VALID,0,VALID,97.0003,VALID,0,VALID,20.834,VALID,2,VALID,0.725781,
2011-03-15, 02:28:04,VALID,915.163,VALID,0,VALID,97.0003,VALID,0,VALID,20.834,VALID,2,VALID,0.554688,
2011-03-15, 02:29:04,VALID,915.135,VALID,0,VALID,96.9927,VALID,0,VALID,20.8535,VALID,2,VALID,0.344922,
2011-03-15, 02:30:04,VALID,915.163,VALID,0,VALID,96.9927,VALID,0,VALID,20.7934,VALID,2,VALID,0.338281,
2011-03-15, 02:31:04,VALID,915.144,VALID,0,VALID,96.9775,VALID,0,VALID,20.795,VALID,2,VALID,0.275,
2011-03-15, 02:32:04,VALID,915.187,VALID,0,VALID,97.008,VALID,0,VALID,20.795,VALID,2,VALID,0.0210938,
2011-03-15, 02:33:04,VALID,915.193,VALID,0,VALID,97.0003,VALID,0,VALID,20.8145,VALID,2,VALID,0,
2011-03-15, 02:34:04,VALID,915.263,VALID,0,VALID,97.008,VALID,0,VALID,20.7934,VALID,2,VALID,0.376953,
2011-03-15, 02:35:04,VALID,915.28,VALID,0,VALID,97.0232,VALID,0,VALID,20.795,VALID,2,VALID,0.101953,
2011-03-15, 02:36:04,VALID,915.332,VALID,0,VALID,97.008,VALID,0,VALID,20.795,VALID,2,VALID,0.172656,
2011-03-15, 02:37:04,VALID,915.372,VALID,0,VALID,97.0003,VALID,0,VALID,20.795,VALID,2,VALID,0,
2011-03-15, 02:38:04,VALID,915.412,VALID,0,VALID,97.0003,VALID,0,VALID,20.795,VALID,2,VALID,0.184766,
2011-03-15, 02:39:04,VALID,915.476,VALID,0,VALID,97.008,VALID,0,VALID,20.7739,VALID,2,VALID,0.313672,
2011-03-15, 02:40:04,VALID,915.476,VALID,0,VALID,97.008,VALID,0,VALID,20.7934,VALID,2,VALID,0.028125,
2011-03-15, 02:41:04,VALID,915.513,VALID,0,VALID,97.0385,VALID,0,VALID,20.8324,VALID,2,VALID,0,
2011-03-15, 02:42:04,VALID,915.47,VALID,0,VALID,97.0232,VALID,0,VALID,20.8324,VALID,2,VALID,0,
2011-03-15, 02:43:04,VALID,915.467,VALID,0,VALID,97.0308,VALID,0,VALID,20.8519,VALID,2,VALID,0,
2011-03-15, 02:44:04,VALID,915.444,VALID,0,VALID,97.0385,VALID,0,VALID,20.873,VALID,2,VALID,0.0769531,
2011-03-15, 02:45:04,VALID,915.442,VALID,0,VALID,97.0385,VALID,0,VALID,20.8519,VALID,2,VALID,0,
2011-03-15, 02:46:04,VALID,915.45,VALID,0,VALID,97.0156,VALID,0,VALID,20.8714,VALID,2,VALID,0,
2011-03-15, 02:47:04,VALID,915.446,VALID,0,VALID,97.0232,VALID,0,VALID,20.891,VALID,2,VALID,0,
2011-03-15, 02:48:04,VALID,915.433,VALID,0,VALID,97.0461,VALID,0,VALID,20.9511,VALID,2,VALID,0.456641,
2011-03-15, 02:49:04,VALID,915.427,VALID,0,VALID,97.0308,VALID,0,VALID,20.93,VALID,2,VALID,0.403125,
2011-03-15, 02:50:04,VALID,915.482,VALID,0,VALID,97.0156,VALID,0,VALID,20.912,VALID,2,VALID,0.448828,
2011-03-15, 02:51:04,VALID,915.456,VALID,0,VALID,97.0308,VALID,0,VALID,20.8519,VALID,2,VALID,0.538672,
2011-03-15, 02:52:04,VALID,915.441,VALID,0,VALID,97.0156,VALID,0,VALID,20.8925,VALID,2,VALID,0.720312,
2011-03-15, 02:53:04,VALID,915.437,VALID,0,VALID,97.0308,VALID,0,VALID,20.891,VALID,7,VALID,1.12578,
2011-03-15, 02:54:04,VALID,915.389,VALID,0,VALID,97.0232,VALID,0,VALID,20.8714,VALID,18,VALID,0.911328,
2011-03-15, 02:55:04,VALID,915.355,VALID,0,VALID,97.0385,VALID,0,VALID,20.912,VALID,26,VALID,0.683984,
2011-03-15, 02:56:04,VALID,915.34,VALID,0,VALID,97.0308,VALID,0,VALID,20.8519,VALID,26,VALID,0.821875,
2011-03-15, 02:57:04,VALID,915.317,VALID,0,VALID,97.0308,VALID,0,VALID,20.873,VALID,26,VALID,0.679688,
2011-03-15, 02:58:04,VALID,915.301,VALID,0,VALID,97.0232,VALID,0,VALID,20.8519,VALID,26,VALID,0.540625,
2011-03-15, 02:59:04,VALID,915.286,VALID,0,VALID,97.008,VALID,0,VALID,20.834,VALID,26,VALID,0.372656,
2011-03-15, 03:00:04,VALID,915.272,VALID,0,VALID,97.0156,VALID,0,VALID,20.7739,VALID,26,VALID,0.382422,
2011-03-15, 03:01:04,VALID,915.302,VALID,0,VALID,97.0308,VALID,0,VALID,20.7934,VALID,26,VALID,0,
2011-03-15, 03:02:04,VALID,915.253,VALID,0,VALID,97.0232,VALID,0,VALID,20.7934,VALID,26,VALID,0.355469,
2011-03-15, 03:03:04,VALID,915.232,VALID,0,VALID,97.0308,VALID,0,VALID,20.7739,VALID,26,VALID,0.389453,
2011-03-15, 03:04:04,VALID,915.244,VALID,0,VALID,97.0308,VALID,0,VALID,20.7934,VALID,26,VALID,0.768359,
2011-03-15, 03:05:04,VALID,915.201,VALID,0,VALID,97.0385,VALID,0,VALID,20.8129,VALID,26,VALID,0.673437,
2011-03-15, 03:06:04,VALID,915.19,VALID,0,VALID,97.0385,VALID,0,VALID,20.8324,VALID,26,VALID,0.726953,
2011-03-15, 03:07:04,VALID,915.168,VALID,0,VALID,97.0461,VALID,0,VALID,20.8324,VALID,26,VALID,0.610547,
2011-03-15, 03:08:04,VALID,915.167,VALID,0,VALID,97.0308,VALID,0,VALID,20.8129,VALID,26,VALID,0.633203,
2011-03-15, 03:09:04,VALID,915.149,VALID,0,VALID,97.0385,VALID,0,VALID,20.8519,VALID,26,VALID,0.717578,
2011-03-15, 03:10:04,VALID,915.131,VALID,0,VALID,97.0156,VALID,0,VALID,20.8324,VALID,26,VALID,0.908594,
2011-03-15, 03:11:04,VALID,915.151,VALID,0,VALID,97.0537,VALID,0.107441,VALID,20.7739,VALID,26,VALID,0.486719,
2011-03-15, 03:12:04,VALID,915.102,VALID,0,VALID,97.0461,VALID,0,VALID,20.7544,VALID,26,VALID,0.263672,
2011-03-15, 03:13:04,VALID,915.108,VALID,0,VALID,97.008,VALID,0,VALID,20.7154,VALID,26,VALID,0.3125,
2011-03-15, 03:14:04,VALID,915.142,VALID,0,VALID,97.0385,VALID,0,VALID,20.6959,VALID,26,VALID,0.429297,
2011-03-15, 03:15:04,VALID,915.119,VALID,0,VALID,97.0385,VALID,0,VALID,20.7154,VALID,26,VALID,0.230859,
2011-03-15, 03:16:04,VALID,915.164,VALID,0,VALID,97.0385,VALID,0,VALID,20.756,VALID,26,VALID,0.409766,
2011-03-15, 03:17:04,VALID,915.158,VALID,0,VALID,97.0461,VALID,0,VALID,20.7544,VALID,26,VALID,0.415234,
2011-03-15, 03:18:04,VALID,915.177,VALID,0,VALID,97.0537,VALID,0,VALID,20.7154,VALID,26,VALID,0.411719,
2011-03-15, 03:19:04,VALID,915.132,VALID,0,VALID,97.0308,VALID,0,VALID,20.717,VALID,26,VALID,0.682422,
2011-03-15, 03:20:04,VALID,915.083,VALID,0,VALID,97.0461,VALID,0,VALID,20.717,VALID,26,VALID,0.829687,
2011-03-15, 03:21:04,VALID,915.117,VALID,0,VALID,97.0766,VALID,0,VALID,20.6764,VALID,26,VALID,1.08477,
2011-03-15, 03:22:04,VALID,915.092,VALID,0,VALID,97.0461,VALID,0,VALID,20.6975,VALID,26,VALID,0.896094,
2011-03-15, 03:23:04,VALID,915.089,VALID,0,VALID,97.069,VALID,0,VALID,20.6764,VALID,26,VALID,0.650781,
2011-03-15, 03:24:04,VALID,915.01,VALID,0,VALID,97.0537,VALID,0,VALID,20.6959,VALID,26,VALID,0.668359,
2011-03-15, 03:25:04,VALID,915.01,VALID,0,VALID,97.069,VALID,0,VALID,20.7154,VALID,26,VALID,0.364062,
2011-03-15, 03:26:04,VALID,914.976,VALID,0,VALID,97.0537,VALID,0,VALID,20.7154,VALID,26,VALID,0.55,
2011-03-15, 03:27:04,VALID,914.977,VALID,0,VALID,97.0461,VALID,0,VALID,20.7154,VALID,26,VALID,0.335156,
2011-03-15, 03:28:04,VALID,914.965,VALID,0,VALID,97.0537,VALID,0,VALID,20.7154,VALID,26,VALID,0.561328,
2011-03-15, 03:29:04,VALID,914.962,VALID,0,VALID,97.0461,VALID,0,VALID,20.717,VALID,26,VALID,0.538281,
2011-03-15, 03:30:04,VALID,914.919,VALID,0,VALID,97.069,VALID,0,VALID,20.6764,VALID,26,VALID,0.385938,
2011-03-15, 03:31:04,VALID,914.912,VALID,0,VALID,97.069,VALID,0,VALID,20.6764,VALID,26,VALID,0.557813,
2011-03-15, 03:32:04,VALID,914.892,VALID,0,VALID,97.0766,VALID,0,VALID,20.6975,VALID,26,VALID,0.846875,
2011-03-15, 03:33:04,VALID,914.882,VALID,0,VALID,97.069,VALID,0,VALID,20.678,VALID,26,VALID,0.601953,
2011-03-15, 03:34:04,VALID,914.878,VALID,0,VALID,97.0613,VALID,0,VALID,20.6975,VALID,26,VALID,0.703516,
2011-03-15, 03:35:04,VALID,914.842,VALID,0,VALID,97.0842,VALID,0,VALID,20.6975,VALID,26,VALID,0.870703,
2011-03-15, 03:36:04,VALID,914.871,VALID,0,VALID,97.0766,VALID,0,VALID,20.6764,VALID,26,VALID,0.227734,
2011-03-15, 03:37:04,VALID,914.882,VALID,0,VALID,97.0613,VALID,0,VALID,20.6959,VALID,26,VALID,0.733984,
2011-03-15, 03:38:04,VALID,914.906,VALID,0,VALID,97.069,VALID,0,VALID,20.6764,VALID,26,VALID,0.152344,
2011-03-15, 03:39:04,VALID,914.899,VALID,0,VALID,97.069,VALID,0,VALID,20.7154,VALID,26,VALID,0.188281,
2011-03-15, 03:40:04,VALID,914.907,VALID,0,VALID,97.0842,VALID,0,VALID,20.7365,VALID,26,VALID,0.338672,
2011-03-15, 03:41:04,VALID,914.895,VALID,0,VALID,97.0994,VALID,0,VALID,20.756,VALID,26,VALID,0.844922,
2011-03-15, 03:42:04,VALID,914.841,VALID,0,VALID,97.0766,VALID,0,VALID,20.756,VALID,26,VALID,0.95625,
2011-03-15, 03:43:04,VALID,914.847,VALID,0,VALID,97.0766,VALID,0,VALID,20.7365,VALID,26,VALID,0.909375,
2011-03-15, 03:44:04,VALID,914.818,VALID,0,VALID,97.0613,VALID,0,VALID,20.6959,VALID,26,VALID,0.645703,
2011-03-15, 03:45:04,VALID,914.814,VALID,0,VALID,97.069,VALID,0.107441,VALID,20.7154,VALID,26,VALID,1.24297,
2011-03-15, 03:46:04,VALID,914.756,VALID,0,VALID,97.0842,VALID,0,VALID,20.7349,VALID,25,VALID,1.06367,
2011-03-15, 03:47:04,VALID,914.773,VALID,0,VALID,97.069,VALID,0,VALID,20.6959,VALID,331,VALID,0.760547,
2011-03-15, 03:48:04,VALID,914.774,VALID,0,VALID,97.0766,VALID,0,VALID,20.6569,VALID,330,VALID,0.75625,
2011-03-15, 03:49:04,VALID,914.742,VALID,0,VALID,97.0766,VALID,0,VALID,20.6569,VALID,1,VALID,1.3125,